Weather in Askiz

Russia / Republic of Khakassia     53°07′54″N   90°32′01″E
temp.,
°C
wind,
m/s
gust,
m/s
humid.,
%
clouds,
%
prec.,
mm/h
press.,
hPa
HPBL,
m
14 may, fri
fri1401:00+11wsw1152100 0.0 101310
04:00+9sw226175 0.0 101313
07:00+11sw22619 0.0 1014113
10:00+16sw44435 0.0 1013762
13:00+20wsw6728100 0.0 10122941
16:00+19nw5730100 0.1 10122528
19:00+12ene457549 1.3 1017289
22:00+10ne237293 1.3 102188
15 may, sat
sat1501:00+8ene1169100 1.3 102370
04:00+7sw1264100 0.0 102322
07:00+8sw367393 0.0 1024278
10:00+14wsw673489 0.0 10221160
13:00+19wsw783468 0.0 10201669
16:00+17nw784797 0.2 10211277
19:00+18wsw584565 1.0 1020856
22:00+12wsw33599 0.0 102042
16 may, sun
sun1601:00+11sw356673 0.0 102070
04:00+10sw387268 0.0 1018172
07:00+11sw3869100 0.0 1018266
10:00+14sw4960100 0.1 1017354
13:00+18sw6114787 0.6 10151194
16:00+22wsw9133881 0.0 10121907
19:00+20wsw914495 0.0 10101445
22:00+15wnw61373100 1.8 1012398
17 may, mon
mon1701:00+14sw71386100 8.0 1011533
04:00+12sw41094100 2.9 1010383
07:00+12ne0094100 5.8 1012119
10:00+11ene3395100 5.6 1013300
13:00+10ene2490100 10.4 1014265
16:00+11se1186100 0.6 1015202
19:00+11ene1185100 0.6 1015160
22:00+10ne119033 0.0 101611
18 may, tue
tue1801:00+9wsw119120 0.0 101511
04:00+8wsw33925 0.0 101443
07:00+10sw41285100 0.0 1011361
10:00+14sw81569100 0.0 1008712
13:00+19wsw91557100 0.1 10061523
16:00+18w91663100 0.3 1005983
19:00+15nw61375100 1.9 1006441
22:00+12wsw3590100 7.4 1006103